Weather in Degtyanka

Russia / Tambov Oblast     53°01′36″N   41°12′43″E
temp.,
°C
wind,
m/s
gust,
m/s
humid.,
%
clouds,
%
prec.,
mm/h
press.,
hPa
HPBL,
m
25 february, thu
thu2500:00−16s599599 0.4 1035351
03:00−15ssw51093100 0.6 1032373
06:00−13ssw61095100 0.4 1028409
09:00−11ssw61195100 1.4 1025420
12:00−6sw71295100 2.1 1021497
15:00−2sw81395100 4.1 1017449
18:00+2w61299100 1.1 1015357
21:00+2wnw61199100 1.1 1015343
26 february, fri
fri2600:00+1wnw51199100 0.0 1015291
03:00+1w3699100 0.0 1016150
06:00+1w4999100 0.1 1014251
09:00+1w511100100 0.3 1014293
12:00+2w612100100 0.2 1012347
15:00+2wsw71499100 0.2 1010384
18:00+2wsw71599100 0.3 1008436
21:00+2w71498100 0.4 1007432
27 february, sat
sat2700:00+2w71491100 0.0 1006459
03:00+1w71488100 0.0 1006507
06:000w71396100 0.1 1005578
09:00+1w71197100 0.1 1005623
12:00+1w61198100 0.1 1004570
15:00+1w61296100 0.1 1003679
18:000wnw71295100 0.2 1003693
21:00−3n61291100 0.8 1006561
28 february, sun
sun2800:00−7nnw599199 0.0 1008477
03:00−9nnw499251 0.0 1010404
06:00−10nnw499336 0.0 1012382
09:00−9n589064 0.0 1014483
12:00−8nnw579090 0.0 1015494
15:00−7nnw588995 0.0 1016536
18:00−7nnw4892100 0.1 1018615
21:00−7nnw3995100 0.1 1020528
1 march, mon
mon100:00−9nnw3695100 0.1 1022169
03:00−10nnw379594 0.1 1023278
06:00−11nnw499582 0.0 1025297
09:00−10n499268 0.0 1027394
12:00−8nnw359290 0.0 1028365
15:00−6nw469295 0.0 1028410
18:00−8wnw369482 0.0 1028128
21:00−7w489488 0.0 1027149